This demonstration page uses our WeatherBlox Daily Observations layout. Learn more.

Left ArrowRight Arrow

41.55636, -103.73856

Hourly Observations for December 13, 2021

Temp ( °F °C ) Dew Point ( °F °C ) Humidity (%) Winds ( mph kmh ) Pressure ( in mb ) Visibility ( mi km ) Precip ( " mm )
12:58 am 00:58 Clear 29 -1.7 16 -8.9 58 58 SW 8 13 30.00 1016 10 16 0.00 0.00
1:58 am 01:58 Clear 33 0.6 15 -9.4 47 47 SW 9 15 30.01 1016 10 16 0.00 0.00
2:58 am 02:58 Clear 30 -0.9 14 -9.8 51 51 SW 9 15 30.05 1018 10 16 0.00 0.00
3:58 am 03:58 Clear 35 1.5 11 -11.4 38 38 SSW 8 13 30.02 1017 10 16 0.00 0.00
4:58 am 04:58 Mostly Clear 35 1.8 13 -10.7 39 39 SW 6 9 30.04 1017 10 16 0.00 0.00
5:58 am 05:58 Mostly Cloudy 37 2.7 14 -9.8 40 40 SSW 7 11 30.06 1018 10 16 0.00 0.00
6:58 am 06:58 Clear 36 2.2 15 -9.7 41 41 WSW 7 11 30.05 1018 10 16 0.00 0.00
7:58 am 07:58 Sunny 38 3.2 14 -10.2 37 37 WSW 6 9 30.09 1019 10 16 0.00 0.00
8:58 am 08:58 Sunny 41 5.1 14 -10.1 33 33 Calm 30.09 1019 10 16 0.00 0.00
9:58 am 09:58 Sunny 44 6.6 14 -9.8 30 30 Calm 30.06 1018 10 16 0.00 0.00
10:58 am 10:58 Sunny 53 11.9 15 -9.5 22 22 SSW 21 33 30.01 1016 10 16 0.00 0.00
11:58 am 11:58 Sunny 57 13.8 15 -9.7 19 19 S 22 35 29.98 1015 10 16 0.00 0.00
12:58 pm 12:58 Sunny 57 14 13 -10.3 18 18 SSW 16 26 29.96 1015 10 16 0.00 0.00
1:58 pm 13:58 Sunny 58 14.2 12 -10.9 17 17 SSW 15 24 29.94 1014 10 16 0.00 0.00
2:58 pm 14:58 Sunny 56 13.3 11 -11.5 17 17 S 14 22 29.96 1015 10 16 0.00 0.00
3:58 pm 15:58 Sunny 53 11.4 12 -11.3 19 19 S 14 22 29.96 1015 10 16 0.00 0.00
4:58 pm 16:58 Clear 46 7.6 13 -10.7 26 26 SSE 14 22 29.98 1015 10 16 0.00 0.00
5:58 pm 17:58 Clear 44 6.7 15 -9.6 30 30 S 9 15 29.98 1015 10 16 0.00 0.00
6:58 pm 18:58 Clear 43 6.2 16 -9.1 33 33 SSE 13 20 29.99 1016 10 16 0.00 0.00
7:58 pm 19:58 Clear 40 4.2 15 -9.5 37 37 Calm 30.02 1017 10 16 0.00 0.00
8:58 pm 20:58 Clear 43 6.2 14 -10.2 30 30 Calm 29.98 1015 10 16 0.00 0.00
9:58 pm 21:58 Clear 43 5.9 14 -10.1 31 31 SSW 15 24 29.96 1015 10 16 0.00 0.00
10:58 pm 22:58 Clear 38 3.3 14 -10.1 37 37 SW 12 19 29.96 1015 10 16 0.00 0.00
11:58 pm 23:58 Clear 40 4.5 12 -11 32 32 W 8 13 29.94 1014 10 16 0.00 0.00

Powered by AerisWeather